Weather History for Parsons, KS

Change the Weather History Date:

Sunday, December 8, 2013

  Actual Average Record
Temperature  
Mean Temperature 24 °F -  
Max Temperature 28 °F 47 °F 72 °F (1966)
Min Temperature 19 °F 28 °F -8 °F (2005)
Degree Days  
Heating Degree Days 42    
Moisture  
Dew Point 19 °F    
Average Humidity 81    
Maximum Humidity 92    
Minimum Humidity 58    
Precipitation  
Precipitation 0.00 in - - ()
Sea Level Pressure  
Sea Level Pressure 30.14 in    
Wind  
Wind Speed 6 mph (SSW)    
Max Wind Speed 10 mph    
Max Gust Speed -    
Visibility 7 miles    
Events Snow    
Averages and records for this station are not official NWS values.
T = Trace of Precipitation, MM = Missing Value Source: NWS Daily Summary

Daily Weather History Graph

Daily Weather History Graph

Search for Another Location

Airport:

Trip Planner

Search our weather history database for the weather conditions in past years. The results will help you decide how hot, cold, wet, or windy it might be!

Date:

Astronomy

Dec. 08, 2013 Rise Set
Actual Time 7:23 AM CST 5:04 PM CST
Civil Twilight 6:54 AM CST 5:33 PM CST
Nautical Twilight 6:22 AM CST 6:05 PM CST
Astronomical Twilight 5:50 AM CST 6:37 PM CST
Moon 11:50 AM CST (12/8) 11:48 PM CST (12/8)
Length of Visible Light 10h 38m
Length of Day
9h 40m
Waxing Crescent, 40% of the Moon is Illuminated
Dec 8
Waxing Crescent
Dec 9
First Quarter
Dec 17
Full
Dec 25
Last Quarter
Jan 1
New

Hourly Weather History & Observations

Time (CST) Temp. Windchill Dew Point Humidity Pressure Visibility Wind Dir Wind Speed Gust Speed Precip Events Conditions
12:52 AM 21.9 °F 12.5 °F 9.0 °F 58% 30.32 in 10.0 mi East 8.1 mph - N/A   Overcast
1:52 AM 21.9 °F 15.7 °F 10.0 °F 60% 30.30 in 10.0 mi East 4.6 mph - N/A   Overcast
2:52 AM 21.9 °F 17.2 °F 10.0 °F 60% 30.25 in 10.0 mi Variable 3.5 mph - N/A   Overcast
3:52 AM 21.9 °F 15.7 °F 10.9 °F 63% 30.23 in 10.0 mi Variable 4.6 mph - N/A   Overcast
4:52 AM 21.9 °F - 12.0 °F 66% 30.21 in 10.0 mi Calm Calm - N/A   Overcast
5:00 AM 21.9 °F 15.7 °F 12.0 °F 66% 30.18 in 10.0 mi ESE 4.6 mph - N/A   Overcast
5:26 AM 21.9 °F 17.2 °F 12.0 °F 66% 30.18 in 8.0 mi Variable 3.5 mph - 0.00 in Snow Light Snow
5:52 AM 21.0 °F 14.6 °F 14.0 °F 74% 30.20 in 3.0 mi ESE 4.6 mph - 0.00 in Snow Light Snow
6:52 AM 21.0 °F 14.6 °F 16.0 °F 81% 30.19 in 10.0 mi ESE 4.6 mph - 0.00 in   Overcast
7:01 AM 21.0 °F 14.6 °F 16.0 °F 81% 30.15 in 7.0 mi Variable 4.6 mph - N/A   Overcast
7:19 AM 19.9 °F 13.4 °F 17.1 °F 89% 30.15 in 4.0 mi Variable 4.6 mph - N/A   Overcast
7:52 AM 19.9 °F 13.4 °F 18.0 °F 92% 30.18 in 3.0 mi Variable 4.6 mph - N/A   Overcast
8:00 AM 21.0 °F 16.2 °F 18.0 °F 88% 30.14 in 2.5 mi Variable 3.5 mph - N/A   Overcast
8:08 AM 21.0 °F 16.2 °F 18.0 °F 88% 30.14 in 3.0 mi ESE 3.5 mph - N/A   Overcast
8:26 AM 21.0 °F 13.4 °F 18.0 °F 88% 30.14 in 2.0 mi SE 5.8 mph - N/A   Overcast
8:52 AM 21.9 °F 15.7 °F 19.0 °F 89% 30.17 in 2.0 mi SE 4.6 mph - N/A   Overcast
9:01 AM 21.9 °F 17.2 °F 19.0 °F 89% 30.13 in 2.0 mi SE 3.5 mph - N/A   Overcast
9:17 AM 21.9 °F 15.7 °F 19.9 °F 92% 30.13 in 1.2 mi SSE 4.6 mph - 0.00 in Snow Light Snow
9:23 AM 23.0 °F 17.0 °F 19.9 °F 88% 30.13 in 0.8 mi SSE 4.6 mph - 0.00 in Snow Light Snow
9:38 AM 24.1 °F 16.0 °F 21.0 °F 88% 30.12 in 1.0 mi SSE 6.9 mph - 0.00 in Snow Light Snow
9:42 AM 23.0 °F 14.7 °F 19.9 °F 88% 30.12 in 1.5 mi SSE 6.9 mph - 0.00 in Snow Light Snow
9:49 AM 24.8 °F 16.1 °F 19.4 °F 80% 30.12 in 2.0 mi South 8.1 mph - 0.00 in Snow Light Snow
9:52 AM 24.1 °F 16.0 °F 19.9 °F 84% 30.16 in 2.5 mi South 6.9 mph - 0.00 in Snow Light Snow
9:59 AM 24.1 °F 18.2 °F 21.0 °F 88% 30.12 in 2.5 mi Variable 4.6 mph - 0.00 in Snow Light Snow
10:08 AM 24.1 °F 16.0 °F 21.0 °F 88% 30.12 in 3.0 mi SSE 6.9 mph - 0.00 in Snow Light Snow
10:19 AM 25.0 °F 17.1 °F 19.9 °F 81% 30.12 in 7.0 mi SSE 6.9 mph - 0.00 in   Overcast
10:26 AM 25.0 °F 17.1 °F 19.9 °F 81% 30.11 in 10.0 mi SSE 6.9 mph - 0.00 in   Overcast
10:52 AM 26.1 °F 19.4 °F 21.0 °F 81% 30.12 in 10.0 mi SSE 5.8 mph - 0.00 in   Overcast
11:52 AM 27.0 °F 19.5 °F 21.9 °F 81% 30.08 in 10.0 mi South 6.9 mph - N/A   Overcast
12:52 PM 28.0 °F 18.6 °F 21.9 °F 78% 30.04 in 8.0 mi South 10.4 mph - N/A   Overcast
1:41 PM 28.0 °F 20.8 °F 23.0 °F 81% 30.00 in 6.0 mi SSW 6.9 mph - 0.00 in   Haze
1:52 PM 27.0 °F 18.0 °F 23.0 °F 85% 30.03 in 6.0 mi South 9.2 mph - 0.00 in   Overcast
2:52 PM 28.0 °F 20.0 °F 24.1 °F 85% 30.02 in 6.0 mi SSW 8.1 mph - N/A   Overcast
3:52 PM 28.0 °F 21.7 °F 25.0 °F 88% 30.03 in 4.0 mi SSW 5.8 mph - N/A   Overcast
4:31 PM 28.0 °F 20.0 °F 25.0 °F 88% 30.02 in 2.5 mi SW 8.1 mph - N/A   Overcast
4:52 PM 28.0 °F 20.8 °F 25.0 °F 88% 30.06 in 4.0 mi SW 6.9 mph - N/A   Overcast
5:21 PM 28.0 °F 21.7 °F 25.0 °F 88% 30.05 in 7.0 mi WSW 5.8 mph - N/A   Overcast
5:41 PM 28.0 °F 19.3 °F 25.0 °F 88% 30.05 in 8.0 mi West 9.2 mph - N/A   Overcast
5:52 PM 28.0 °F 19.3 °F 24.1 °F 85% 30.09 in 10.0 mi West 9.2 mph - N/A   Overcast
6:52 PM 27.0 °F 17.3 °F 23.0 °F 85% 30.12 in 10.0 mi West 10.4 mph - N/A   Overcast
7:52 PM 27.0 °F 20.5 °F 23.0 °F 85% 30.15 in 10.0 mi West 5.8 mph - N/A   Overcast
8:01 PM 27.0 °F 19.5 °F 23.0 °F 85% 30.13 in 10.0 mi West 6.9 mph - N/A   Overcast
8:31 PM 27.0 °F 18.7 °F 21.9 °F 81% 30.14 in 10.0 mi WNW 8.1 mph - N/A   Overcast
8:41 PM 27.0 °F 19.5 °F 21.0 °F 78% 30.14 in 10.0 mi WNW 6.9 mph - N/A   Overcast
8:52 PM 27.0 °F 19.5 °F 21.0 °F 78% 30.17 in 10.0 mi WNW 6.9 mph - N/A   Overcast
9:52 PM 26.1 °F 17.6 °F 21.0 °F 81% 30.20 in 10.0 mi WNW 8.1 mph - N/A   Overcast
10:21 PM 26.1 °F 19.4 °F 19.9 °F 78% 30.17 in 10.0 mi West 5.8 mph - N/A   Overcast
10:52 PM 23.0 °F 14.7 °F 19.0 °F 85% 30.22 in 9.0 mi WNW 6.9 mph - N/A   Mostly Cloudy
11:41 PM 24.1 °F 17.0 °F 19.9 °F 84% 30.21 in 9.0 mi WNW 5.8 mph - N/A   Mostly Cloudy
11:52 PM 25.0 °F 17.1 °F 19.9 °F 81% 30.24 in 10.0 mi WNW 6.9 mph - N/A   Overcast